Location: B?lite?ti
(46.2833°N, 22.7333°E)
Time: 04:48:13
(UTC+00:00)

SMAP - Pass Details

Date: 24 January 2021
Orbit: 681 x 683 km, 98.1° (Epoch: 26 February)

Event Time Altitude Azimuth Distance (km) Brightness Sun altitude
Rises 15:45:12 0° 164° (SSE) 3,032 6.5 -4.5°
Reaches altitude 10° 15:47:26 10° 164° (SSE) 2,121 5.7 -4.8°
Maximum altitude 15:52:05 87° 76° (ENE) 691 3.1 -5.5°
Drops below altitude 10° 15:56:46 10° 347° (NNW) 2,137 5.5 -6.3°
Sets 15:59:01 0° 347° (NNW) 3,057 6.3 -6.7°
